Location: Writing-on-Stone Provincial Park
(49.0825°N, 111.6163°W)
Time: 23:36:17
(UTC-06:00)

Amateur Radio Satellites - All Passes

Search period start: 22 July 2014 23:06
Search period end: 23 July 2014 23:06
Location: Writing-on-Stone Provincial Park, 49.0825°N, 111.6163°W

Satellite Date Start Highest point End Downlink Frequencies (MHz)
Time Altitude Azimuth
HO-68 22 Jul 23:16:06 23:21:17 21° 271° (W) 23:26:29 435.675 MHz FM
MaSat-1 22 Jul 23:38:14 23:42:09 54° 114° (ESE) 23:46:45 437.345 MHz
Oscar 11 22 Jul 23:42:14 23:44:37 15° 271° (W) 23:47:02 145.825 FM, Beacon 2401.500 USB
FUNcube-1 22 Jul 23:42:42 23:46:39 33° 264° (W) 23:50:34 145.950 - 145.970 MHz USB
UOSAT-12 22 Jul 23:51:15 23:55:25 29° 35° (NE) 23:59:33 437.025 FM, 437.400 FM
RS-15 23 Jul 00:05:07 00:16:09 84° 234° (SW) 00:27:32 29.354 - 29.394 USB, Beacon 29.352 USB
AO-40 23 Jul 00:09:45 05:11:41 30° 183° (S) 10:25:06 Beacon 2401.320
SO-50 23 Jul 00:33:43 00:37:27 23° 245° (WSW) 00:41:13 436.795 FM
MaSat-1 23 Jul 01:16:18 01:19:55 26° 318° (NW) 01:23:59 437.345 MHz
UOSAT-12 23 Jul 01:31:14 01:35:56 63° 235° (SW) 01:40:34 437.025 FM, 437.400 FM
Sapphire 23 Jul 01:48:41 01:51:20 14° 103° (ESE) 01:54:00 437.095 MHz 1200 baud AX-25 AFSK
RS-15 23 Jul 02:18:35 02:26:57 26° 258° (WSW) 02:35:33 29.354 - 29.394 USB, Beacon 29.352 USB
Oscar 19 23 Jul 02:20:03 02:24:27 28° 94° (E) 02:28:50 437.125 CW, 437.150 USB
PCSat 23 Jul 02:20:34 02:25:02 27° 110° (ESE) 02:29:32 145.825 MHz
Lituanica SAT-1 23 Jul 02:31:52 02:34:02 63° 155° (SSE) 02:36:12 437.275 MHz beacon
Oscar 16 23 Jul 02:46:54 02:51:54 48° 99° (E) 02:56:52 437.025 USB, Beacon 2401.1428
ITAMSAT 1 23 Jul 02:54:16 02:58:38 27° 93° (E) 03:02:58 435.822 SSB
Gurwin Techsat 1B 23 Jul 02:58:01 03:00:29 13° 86° (E) 03:02:57 435.225 FM
AO-27 23 Jul 03:11:25 03:16:16 37° 97° (E) 03:21:03 436.795 MHz FM
JAS-1B 23 Jul 03:12:18 03:21:04 36° 89° (E) 03:28:57 435.800 - 435.900 CW/SSB
Uribyol 2 23 Jul 03:15:09 03:20:03 41° 98° (E) 03:24:54 436.500 FM
ISS 23 Jul 03:18:37 03:21:46 39° 148° (SSE) 03:24:56 145.800 FM
OPAL 23 Jul 03:19:34 03:23:52 31° 60° (ENE) 03:28:11 ?
AO-Echo 23 Jul 03:28:22 03:33:30 54° 100° (E) 03:38:25 ?
Sapphire 23 Jul 03:28:29 03:33:53 79° 122° (ESE) 03:39:20 437.095 MHz 1200 baud AX-25 AFSK
Oscar 19 23 Jul 03:59:04 04:04:00 47° 292° (WNW) 04:08:55 437.125 CW, 437.150 USB
PCSat 23 Jul 04:02:46 04:08:07 59° 310° (NW) 04:13:30 145.825 MHz
Lituanica SAT-1 23 Jul 04:04:56 04:07:02 39° 356° (N) 04:09:08 437.275 MHz beacon
TMSAT-1 23 Jul 04:15:57 04:21:02 44° 98° (E) 04:26:04 436.925 FM
Oscar 16 23 Jul 04:26:41 04:31:03 28° 298° (WNW) 04:35:24 437.025 USB, Beacon 2401.1428
ITAMSAT 1 23 Jul 04:33:23 04:38:23 49° 292° (WNW) 04:43:21 435.822 SSB
Gurwin Techsat 1B 23 Jul 04:35:56 04:41:18 84° 104° (ESE) 04:46:37 435.225 FM
AO-27 23 Jul 04:51:03 04:55:45 36° 296° (WNW) 05:00:26 436.795 MHz FM
Uribyol 2 23 Jul 04:54:52 04:59:26 32° 297° (WNW) 05:03:58 436.500 FM
ISS 23 Jul 04:55:05 04:58:26 66° 347° (NNW) 05:01:48 145.800 FM
OPAL 23 Jul 04:57:57 05:02:38 42° 259° (W) 05:07:21 ?
AO-7 23 Jul 04:58:30 05:05:44 31° 94° (E) 05:12:52 29.400 - 29.500 MHz
JAS-1B 23 Jul 05:02:27 05:12:16 71° 292° (WNW) 05:21:02 435.800 - 435.900 CW/SSB
AO-Echo 23 Jul 05:07:42 05:11:56 26° 299° (WNW) 05:16:04 ?
Sapphire 23 Jul 05:13:24 05:17:55 26° 324° (NW) 05:22:28 437.095 MHz 1200 baud AX-25 AFSK
Uosat F 23 Jul 05:19:41 05:24:25 39° 98° (E) 05:29:06 435.120 FM
STRAND 1 23 Jul 05:33:34 05:36:33 16° 54° (NE) 05:39:32 ?
Lituanica SAT-1 23 Jul 05:37:57 05:40:08 59° 15° (NNE) 05:42:19 437.275 MHz beacon
PCSat 23 Jul 05:48:57 05:52:41 19° 333° (NNW) 05:56:27 145.825 MHz
TMSAT-1 23 Jul 05:56:11 06:00:49 32° 297° (WNW) 06:05:26 436.925 FM
Oscar 10/S400 23 Jul 06:06:15 07:17:30 35° 230° (SW) 11:40:16 145.825 - 145.975 CW/USB, Beacon 145.810 USB
MaSat-1 23 Jul 06:15:59 06:18:51 15° 31° (NNE) 06:21:45 437.345 MHz
Gurwin Techsat 1B 23 Jul 06:17:05 06:20:38 19° 304° (NW) 06:24:10 435.225 FM
ISS 23 Jul 06:32:06 06:35:26 56° 7° (N) 06:38:45 145.800 FM
AO-7 23 Jul 06:50:53 06:59:11 72° 295° (WNW) 07:07:26 29.400 - 29.500 MHz
JAS-1B 23 Jul 06:53:47 07:01:04 25° 315° (NW) 07:08:00 435.800 - 435.900 CW/SSB
Uosat F 23 Jul 06:58:40 07:03:08 33° 297° (WNW) 07:07:33 435.120 FM
JAS-2 23 Jul 07:00:54 07:06:31 31° 91° (E) 07:11:32 435.800 - 435.900 CW/SSB, 435.910 FM
Sapphire 23 Jul 07:01:07 07:03:19 12° 350° (N) 07:05:31 437.095 MHz 1200 baud AX-25 AFSK
Hamsat 23 Jul 07:09:14 07:13:17 41° 98° (E) 07:17:21 145.90 MHz
STRAND 1 23 Jul 07:09:51 07:15:00 85° 73° (ENE) 07:20:12 ?
Lituanica SAT-1 23 Jul 07:11:05 07:12:54 22° 213° (SSW) 07:14:43 437.275 MHz beacon
KITSAT 1 23 Jul 07:34:33 07:41:38 35° 110° (ESE) 07:48:44 435.175 FM
PCSat 23 Jul 07:36:40 07:38:25 11° 360° (N) 07:40:11 145.825 MHz
MaSat-1 23 Jul 07:52:21 07:57:29 48° 52° (NE) 08:02:36 437.345 MHz
ISS 23 Jul 08:08:54 08:12:14 58° 207° (SSW) 08:15:32 145.800 FM
AO-7 23 Jul 08:44:41 08:50:40 23° 318° (NW) 08:56:37 29.400 - 29.500 MHz
Hamsat 23 Jul 08:45:39 08:49:04 24° 296° (WNW) 08:52:31 145.90 MHz
JAS-2 23 Jul 08:45:39 08:51:59 52° 294° (WNW) 08:57:33 435.800 - 435.900 CW/SSB, 435.910 FM
Sapphire 23 Jul 08:46:29 08:49:14 14° 17° (NNE) 08:51:59 437.095 MHz 1200 baud AX-25 AFSK
SO-67 23 Jul 08:49:01 08:52:31 88° 107° (ESE) 08:56:00 435.3500 MHz FM
HO-68 23 Jul 08:51:23 08:54:15 13° 83° (E) 08:57:06 435.675 MHz FM
STRAND 1 23 Jul 08:51:58 08:54:53 15° 272° (W) 08:57:48 ?
PCSat 23 Jul 09:20:30 09:24:11 18° 26° (NNE) 09:27:51 145.825 MHz
KITSAT 1 23 Jul 09:28:28 09:36:33 70° 312° (NW) 09:44:40 435.175 FM
MaSat-1 23 Jul 09:30:01 09:34:46 33° 251° (WSW) 09:39:23 437.345 MHz
ISS 23 Jul 09:46:54 09:48:24 13° 225° (SW) 09:49:54 145.800 FM
Saudisat 1A 23 Jul 09:48:38 09:52:39 35° 119° (ESE) 09:56:41 436.775 MHz
Sapphire 23 Jul 10:29:25 10:34:22 34° 41° (NE) 10:39:17 437.095 MHz 1200 baud AX-25 AFSK
JAS-2 23 Jul 10:32:56 10:35:26 12° 317° (NW) 10:37:50 435.800 - 435.900 CW/SSB, 435.910 FM
HO-68 23 Jul 10:36:17 10:43:25 64° 103° (ESE) 10:50:29 435.675 MHz FM
PCSat 23 Jul 11:03:26 11:08:48 56° 49° (NE) 11:14:08 145.825 MHz
Oscar 11 23 Jul 11:23:17 11:27:38 79° 103° (ESE) 11:31:58 145.825 FM, Beacon 2401.500 USB
KITSAT 1 23 Jul 11:26:34 11:33:29 30° 338° (NNW) 11:40:25 435.175 FM
FUNcube-1 23 Jul 11:27:26 11:31:15 33° 96° (E) 11:35:02 145.950 - 145.970 MHz USB
Saudisat 1A 23 Jul 11:28:01 11:32:12 40° 319° (NW) 11:36:25 436.775 MHz
Oscar 19 23 Jul 12:06:07 12:07:31 11° 50° (NE) 12:08:55 437.125 CW, 437.150 USB
Sapphire 23 Jul 12:12:46 12:18:03 54° 242° (WSW) 12:23:19 437.095 MHz 1200 baud AX-25 AFSK
JAS-1B 23 Jul 12:15:20 12:20:18 16° 34° (NNE) 12:25:24 435.800 - 435.900 CW/SSB
HO-68 23 Jul 12:24:32 12:30:44 33° 304° (NW) 12:36:55 435.675 MHz FM
Oscar 16 23 Jul 12:31:00 12:34:23 18° 56° (ENE) 12:37:47 437.025 USB, Beacon 2401.1428
ITAMSAT 1 23 Jul 12:40:58 12:42:44 12° 50° (NE) 12:44:29 435.822 SSB
PCSat 23 Jul 12:47:20 12:51:56 29° 249° (WSW) 12:56:30 145.825 MHz
AO-27 23 Jul 12:56:58 13:00:01 16° 54° (NE) 13:03:04 436.795 MHz FM
Uribyol 2 23 Jul 13:00:12 13:03:28 17° 55° (NE) 13:06:44 436.500 FM
Oscar 11 23 Jul 13:00:54 13:03:16 15° 302° (WNW) 13:05:37 145.825 FM, Beacon 2401.500 USB
FUNcube-1 23 Jul 13:04:03 13:07:35 27° 295° (WNW) 13:11:05 145.950 - 145.970 MHz USB
AO-Echo 23 Jul 13:08:25 13:12:03 19° 57° (ENE) 13:15:43 ?
Saudisat 1A 23 Jul 13:10:34 13:12:58 14° 342° (NNW) 13:15:22 436.775 MHz
KITSAT 1 23 Jul 13:25:26 13:31:47 24° 7° (N) 13:38:06 435.175 FM
Oscar 19 23 Jul 13:40:50 13:45:51 59° 70° (ENE) 13:50:54 437.125 CW, 437.150 USB
JAS-1B 23 Jul 14:00:00 14:08:12 43° 57° (ENE) 14:17:13 435.800 - 435.900 CW/SSB
TMSAT-1 23 Jul 14:03:21 14:06:52 18° 56° (NE) 14:10:23 436.925 FM
Oscar 16 23 Jul 14:08:01 14:13:09 81° 256° (WSW) 14:18:19 437.025 USB, Beacon 2401.1428
AO-7 23 Jul 14:13:06 14:18:31 20° 39° (NE) 14:23:56 29.400 - 29.500 MHz
ITAMSAT 1 23 Jul 14:16:05 14:21:13 60° 70° (ENE) 14:26:22 435.822 SSB
Gurwin Techsat 1B 23 Jul 14:22:16 14:26:55 32° 63° (ENE) 14:31:35 435.225 FM
AO-27 23 Jul 14:33:33 14:38:47 84° 73° (ENE) 14:44:03 436.795 MHz FM
RS-15 23 Jul 14:34:00 14:44:00 41° 110° (ESE) 14:53:49 29.354 - 29.394 USB, Beacon 29.352 USB
Uribyol 2 23 Jul 14:37:03 14:42:17 89° 256° (WSW) 14:47:31 436.500 FM
AO-Echo 23 Jul 14:44:54 14:50:12 82° 256° (WSW) 14:55:34 ?
SO-50 23 Jul 14:51:41 14:55:56 44° 121° (ESE) 15:00:17 436.795 FM
Saudisat 1A 23 Jul 14:53:04 14:54:27 11° 7° (N) 14:55:49 436.775 MHz
Uosat F 23 Jul 15:01:04 15:03:52 15° 54° (NE) 15:06:40 435.120 FM
Oscar 19 23 Jul 15:21:42 15:25:36 22° 269° (W) 15:29:31 437.125 CW, 437.150 USB
KITSAT 1 23 Jul 15:21:57 15:29:35 42° 36° (NE) 15:37:09 435.175 FM
TMSAT-1 23 Jul 15:40:50 15:46:09 84° 255° (WSW) 15:51:30 436.925 FM
UOSAT-12 23 Jul 15:48:07 15:50:46 15° 110° (ESE) 15:53:26 437.025 FM, 437.400 FM
JAS-1B 23 Jul 15:49:40 15:58:15 63° 261° (W) 16:08:01 435.800 - 435.900 CW/SSB
Oscar 16 23 Jul 15:51:23 15:53:21 12° 275° (W) 15:55:19 437.025 USB, Beacon 2401.1428
ITAMSAT 1 23 Jul 15:57:07 16:01:07 22° 269° (W) 16:05:08 435.822 SSB
AO-7 23 Jul 16:01:34 16:09:43 60° 62° (ENE) 16:17:55 29.400 - 29.500 MHz
Gurwin Techsat 1B 23 Jul 16:01:42 16:06:45 44° 262° (W) 16:11:51 435.225 FM
AO-27 23 Jul 16:15:55 16:18:59 16° 272° (W) 16:22:03 436.795 MHz FM
Uribyol 2 23 Jul 16:19:53 16:22:31 14° 273° (W) 16:25:09 436.500 FM
AO-Echo 23 Jul 16:27:23 16:29:48 13° 275° (W) 16:32:14 ?
Saudisat 1A 23 Jul 16:32:09 16:35:39 22° 31° (NNE) 16:39:08 436.775 MHz
SO-50 23 Jul 16:32:29 16:36:37 34° 322° (NW) 16:40:51 436.795 FM
Uosat F 23 Jul 16:36:51 16:41:54 83° 73° (ENE) 16:47:00 435.120 FM
RS-15 23 Jul 16:44:39 16:55:42 72° 315° (NW) 17:06:40 29.354 - 29.394 USB, Beacon 29.352 USB
OPAL 23 Jul 17:03:19 17:07:55 34° 99° (E) 17:12:31 ?
JAS-2 23 Jul 17:16:08 17:22:33 30° 57° (ENE) 17:28:39 435.800 - 435.900 CW/SSB, 435.910 FM
KITSAT 1 23 Jul 17:17:30 17:25:33 70° 240° (WSW) 17:33:31 435.175 FM
TMSAT-1 23 Jul 17:24:24 17:26:54 13° 274° (W) 17:29:24 436.925 FM
UOSAT-12 23 Jul 17:25:37 17:30:15 87° 310° (NW) 17:35:00 437.025 FM, 437.400 FM
JAS-1B 23 Jul 17:45:51 17:50:56 16° 284° (WNW) 17:56:21 435.800 - 435.900 CW/SSB
AO-7 23 Jul 17:55:15 18:02:53 38° 263° (W) 18:10:35 29.400 - 29.500 MHz
Hamsat 23 Jul 18:06:32 18:10:33 48° 71° (ENE) 18:14:36 145.90 MHz
Saudisat 1A 23 Jul 18:11:21 18:15:48 86° 232° (SW) 18:20:12 436.775 MHz
SO-50 23 Jul 18:16:08 18:18:33 14° 346° (NNW) 18:20:59 436.795 FM
Uosat F 23 Jul 18:18:30 18:21:21 15° 272° (W) 18:24:14 435.120 FM
OPAL 23 Jul 18:42:13 18:46:50 38° 297° (WNW) 18:51:29 ?
JAS-2 23 Jul 18:59:05 19:06:58 79° 256° (WSW) 19:14:28 435.800 - 435.900 CW/SSB, 435.910 FM
RS-15 23 Jul 19:00:12 19:10:11 38° 346° (NNW) 19:20:14 29.354 - 29.394 USB, Beacon 29.352 USB
UOSAT-12 23 Jul 19:07:21 19:11:04 23° 331° (NNW) 19:14:50 437.025 FM, 437.400 FM
KITSAT 1 23 Jul 19:14:55 19:19:29 16° 261° (W) 19:24:02 435.175 FM
STRAND 1 23 Jul 19:17:09 19:21:00 21° 91° (E) 19:24:49 ?
HO-68 23 Jul 19:24:28 19:29:13 20° 46° (NE) 19:33:59 435.675 MHz FM
SO-67 23 Jul 19:25:56 19:29:19 54° 73° (ENE) 19:32:45 435.3500 MHz FM
Hamsat 23 Jul 19:43:51 19:46:49 19° 269° (W) 19:49:48 145.90 MHz
Saudisat 1A 23 Jul 19:52:46 19:54:42 13° 250° (WSW) 19:56:37 436.775 MHz
SO-50 23 Jul 19:58:53 20:01:04 13° 11° (N) 20:03:17 436.795 FM
JAS-2 23 Jul 20:47:46 20:52:59 19° 275° (W) 20:58:05 435.800 - 435.900 CW/SSB, 435.910 FM
Oscar 11 23 Jul 20:48:34 20:50:51 14° 58° (ENE) 20:53:07 145.825 FM, Beacon 2401.500 USB
UOSAT-12 23 Jul 20:50:54 20:52:56 13° 355° (N) 20:54:58 437.025 FM, 437.400 FM
STRAND 1 23 Jul 20:55:33 21:00:37 61° 290° (WNW) 21:05:38 ?
SO-67 23 Jul 21:01:20 21:02:45 12° 271° (W) 21:04:11 435.3500 MHz FM
HO-68 23 Jul 21:08:40 21:15:48 72° 68° (ENE) 21:22:57 435.675 MHz FM
RS-15 23 Jul 21:15:50 21:26:00 40° 20° (NNE) 21:36:19 29.354 - 29.394 USB, Beacon 29.352 USB
SO-50 23 Jul 21:39:04 21:43:09 28° 35° (NE) 21:47:17 436.795 FM
Oscar 11 23 Jul 22:22:09 22:26:27 80° 257° (WSW) 22:30:48 145.825 FM, Beacon 2401.500 USB
FUNcube-1 23 Jul 22:27:40 22:31:51 46° 70° (ENE) 22:35:57 145.950 - 145.970 MHz USB
UOSAT-12 23 Jul 22:31:59 22:35:00 16° 20° (NNE) 22:38:01 437.025 FM, 437.400 FM
STRAND 1 23 Jul 22:37:10 22:38:48 12° 310° (NW) 22:40:27 ?
